Location: ??????
(30.5519°N, 47.7720°E)
Time: 17:28:59
(UTC+00:00)

USA 229 - Pass Details

Date: 24 January 2021
Orbit: 964 x 1248 km, 63.4° (Epoch: 26 February)

Event Time Altitude Azimuth Distance (km) Brightness Sun altitude
Rises 16:50:25 0° 330° (NNW) 4,032 7.0 -32.6°
Reaches altitude 10° 16:53:05 10° 329° (NNW) 3,103 6.4 -33.2°
Enters shadow 16:59:56 76° 308° (NW) 1,257 3.9 -34.7°
